Lid_Strength_Index
3 4 4 5 5 5 6 5 5 4 4 4 5 4 4 4 4 4 1 -1 2 4 3 3 3 4 4 4 5 4 5 4 4 7 7 7 7 7 7 6 7 8 9 9 8 10 11 4 5 7 6 4 4 4
3 3 4 5 5 5 6 6 5 5 5 5 4 5 5 4 4 4 2 1 -0 3 3 2 2 1 2 2 3 3 4 5 4 6 5 6 7 6 7 10 6 9 6 8 8 9 6 4 5 4 4 4 4 4
3 3 4 5 5 6 6 6 6 5 5 5 5 5 5 5 4 4 3 1 1 3 3 2 4 2 1 1 1 4 3 3 3 3 5 5 7 6 8 7 6 6 5 7 7 6 6 4 4 3 3 3 3 3
3 3 4 5 6 6 6 6 6 6 6 5 5 5 5 5 5 5 3 2 1 2 5 3 0 2 1 1 2 2 2 2 2 3 5 5 6 4 6 6 7 6 5 6 6 6 5 4 4 3 3 3 3 3
3 3 4 4 6 6 6 6 6 6 6 6 5 5 5 5 5 4 3 1 -0 3 6 4 2 1 1 1 1 1 2 2 3 4 5 6 4 4 5 5 6 4 5 7 7 5 5 5 3 3 3 4 3 3
3 3 4 5 6 7 7 7 7 7 6 6 6 6 6 6 6 4 3 1 0 0 4 6 2 2 1 1 2 2 2 2 3 4 4 3 3 5 7 7 5 4 4 4 5 3 4 3 3 3 3 3 3 3
3 3 4 5 6 6 6 7 7 7 7 7 6 6 6 6 5 5 4 2 4 1 4 6 5 3 2 2 2 2 2 2 3 4 4 4 4 5 6 8 4 4 4 3 3 3 4 3 4 3 3 3 3 2
3 4 5 5 6 6 6 7 7 7 7 7 6 6 6 5 5 5 3 5 4 2 3 6 5 4 2 4 5 2 4 3 3 4 3 5 5 5 7 4 4 4 3 3 3 3 3 3 3 3 2 3 3 3
4 5 5 5 6 6 6 7 7 7 7 7 6 6 4 4 4 2 4 4 2 2 6 5 7 7 2 4 3 4 3 6 3 5 5 4 6 8 6 4 5 4 4 4 3 3 3 3 3 3 3 3 4 4
5 5 5 5 5 5 6 7 7 7 7 7 5 4 5 3 5 3 3 3 4 4 4 6 4 5 4 4 5 5 4 6 8 6 4 6 7 4 4 3 3 3 3 3 4 5 4 4 4 4 3 4 4 4
5 5 5 5 5 5 6 6 6 6 7 4 4 4 2 4 2 3 5 6 5 6 5 5 5 5 3 6 6 4 6 6 8 7 7 7 8 5 3 3 3 2 2 2 2 2 3 3 3 3 4 4 4 3
5 5 5 5 5 5 6 6 6 6 5 7 7 5 2 3 4 6 7 6 6 7 5 6 5 4 4 2 5 5 7 6 9 5 7 9 7 5 4 4 3 3 3 3 2 3 2 2 3 4 4 4 4 3
6 6 6 6 6 6 6 7 7 6 6 5 6 5 5 5 11 9 10 8 8 5 5 5 6 4 4 4 5 6 8 8 5 8 9 7 6 5 4 3 3 2 2 3 3 2 2 3 4 4 4 4 4 3
6 6 7 6 6 6 6 7 6 6 6 7 7 12 8 9 8 7 6 6 4 4 4 4 5 5 4 6 5 8 6 6 9 10 9 7 6 5 4 3 3 3 3 3 3 3 3 4 4 4 3 3 3 4
7 7 7 7 6 6 5 6 6 6 7 7 7 12 8 6 4 4 4 4 3 3 4 5 5 4 6 7 5 7 9 10 9 9 5 6 5 4 4 3 3 3 3 3 2 3 4 4 4 3 3 2 3 3
7 7 7 7 7 6 5 6 7 6 7 8 7 8 7 7 7 5 5 5 3 3 3 4 6 7 7 6 8 9 9 10 7 5 5 5 4 4 3 3 3 2 2 2 2 3 3 3 3 3 3 2 2 2
7 7 7 7 7 6 5 6 7 9 9 9 9 7 7 6 6 5 4 4 2 4 6 6 8 8 5 8 8 7 8 5 5 4 4 4 4 4 3 3 3 2 2 2 2 3 3 3 3 3 3 2 1 1
6 6 8 7 7 7 5 6 9 10 11 9 11 9 8 6 5 4 4 3 4 5 5 7 5 8 8 9 8 6 4 4 3 4 4 4 3 3 3 3 3 2 2 2 2 3 3 3 3 3 2 1 2 1
5 6 7 7 7 8 8 8 7 11 9 8 8 8 7 6 5 4 3 3 3 3 4 5 7 8 7 6 5 4 4 4 4 4 4 3 3 3 3 2 2 2 2 2 2 3 3 3 3 2 1 2 2 2
4 6 7 7 7 9 9 9 7 10 10 9 8 8 7 7 6 5 4 4 4 4 6 7 7 6 6 4 4 4 3 3 4 4 4 3 3 2 3 2 2 2 2 2 2 5 3 3 3 2 1 2 2 2
5 6 7 7 8 8 9 8 9 9 8 9 8 8 8 6 7 7 7 4 5 6 6 5 5 4 3 3 2 1 2 2 3 3 4 4 3 2 2 2 2 2 2 2 3 4 5 3 3 2 1 2 0 0
5 5 7 7 9 9 9 7 9 8 9 9 9 8 9 9 8 8 7 7 6 5 4 4 4 3 3 3 2 2 2 2 2 2 4 4 3 3 3 2 2 3 2 2 3 3 3 3 2 2 1 1 2 1
5 6 8 8 11 12 11 7 10 9 11 10 9 11 10 10 8 6 9 7 6 4 3 3 3 2 3 2 2 2 2 2 2 2 2 3 3 2 2 2 2 3 4 3 2 3 3 5 4 1 1 1 1 1
5 8 10 10 11 12 9 11 9 10 10 10 11 11 10 9 7 8 9 8 6 5 5 3 3 3 3 2 3 3 2 2 2 2 2 2 3 3 2 2 3 2 2 2 2 2 2 3 4 1 1 2 1 1
10 10 10 13 9 11 12 12 12 11 12 11 12 11 10 8 10 10 10 8 6 6 5 5 5 5 5 5 3 3 1 2 2 3 2 2 3 3 2 2 2 1 2 3 3 2 3 2 1 1 1 2 2 2
11 9 11 11 10 11 11 12 11 11 10 11 11 9 9 10 11 11 9 7 6 6 5 5 5 5 5 5 5 5 4 3 2 3 2 2 3 3 3 3 3 2 1 1 2 3 3 3 2 2 2 2 5 2
10 9 8 7 8 8 9 9 8 10 11 11 11 11 11 12 12 9 6 5 5 4 3 3 3 3 3 3 3 3 3 2 2 3 2 2 2 2 2 3 3 2 1 0 1 2 3 2 1 2 1 1 1 1
8 8 10 8 8 8 10 10 10 10 9 8 8 11 11 10 9 6 5 4 4 3 3 3 2 2 2 2 1 2 2 1 2 2 2 2 1 1 0 0 0 5 1 0 0 1 1 1 1 1 1 1 1 0
7 6 7 9 9 9 9 10 9 8 6 6 8 9 9 6 5 5 4 3 3 3 4 4 3 2 2 1 1 1 1 1 2 3 3 3 3 2 0 1 0 0 0 0 9 4 1 1 1 1 1 1 0 -0
8 6 8 8 9 10 8 7 7 6 5 5 5 5 5 5 4 3 3 3 4 4 4 3 3 3 3 2 2 2 1 1 2 3 3 3 2 1 1 1 1 1 0 0 0 0 7 2 3 0 1 1 1 1
6 7 8 7 8 7 6 5 5 5 5 5 5 5 5 4 3 3 3 2 2 2 3 3 2 2 2 2 3 3 4 1 1 0 1 1 1 1 1 0 1 0 0 0 0 1 1 1 1 1 1 1 1 1
6 7 8 8 8 5 4 5 4 4 4 4 5 4 4 4 5 3 1 1 2 2 3 2 2 2 1 1 2 1 8 1 1 0 0 1 1 0 0 0 0 0 0 1 0 1 1 1 1 1 2 2 2 2
5 6 6 6 6 6 5 5 6 6 6 6 5 5 4 5 7 3 1 0 1 2 2 1 1 1 1 1 1 1 4 0 2 8 8 7 7 5 1 0 -0 0 0 1 1 1 1 1 1 1 1 1 1 1